Back to catalog

COSMOS 1803

AliveMilitaryPO
NORAD 17177·PAYLOAD·🇷🇺 Russia

Launched Dec 2, 1986 from Plesetsk Cosmodrome

Loading…

Next Passes (next 24 hours)

TLE

FreshSource: Space-Track

Epoch: Sep 14, 2026, 21:31 UTC

1 17177U 86094A   26257.89659065  .00000022  00000-0  90525-4 0  9999
2 17177  82.6079 315.7769 0002457 232.9273 309.0557 12.41548138803086

Track COSMOS 1803 in real time with AllMySat

Download on the App Store